Flag for Canada Weather past 2 weeks in Arviat, Nunavut Territory, Canada

Now
52 °F

Sunny.


Feels Like: 46 °F
Forecast: 49 / 58 °F
Wind: 17 mph from South

Location: Arviat Airport

Current Time: Aug 1, 2014 at 7:13:40 AM

Latest Report: Aug 1, 2014 at 6:00 AM


Visibility: 9 mi

Pressure: 29.91 "Hg

Humidity: 82%

Dew point: 46 °F

Location of ArviatLocation

Historic Weather in Arviat — Graph

°F

Arviat temperature yesterday

Maximum temperature yesterday: 63 °F (at 4:00 PM)
Minimum temperature yesterday: 48 °F (at 5:00 AM)
Average temperature yesterday: 54 °F

Past Weeks' High & Low Weather Summary

 TemperatureHumidityPressure
High81 °F (Jul 27, 4:00 PM)100% (Jul 25, 7:00 AM)30.18 "Hg (Jul 25, 7:00 AM)
Low41 °F (Jul 26, 3:02 AM)31% (Jul 23, 3:00 PM)29.32 "Hg (Jul 17, 5:00 AM)
Average56 °F76%29.89 "Hg
* Reported Jul 17 5:00 AM — Aug 1 5:00 AM, Arviat, Weather by CustomWeather, © 2014

Note: Actual official high and low records may vary slightly from our data, if they occured in-between our weather recording intervals... More about our weather records

Advertising

Arviat weather history for previous 24 hours

 ConditionsComfort  
Time TempWeatherWind HumidityBarometerVisibility
5:00 AM
Aug 1
50 °FClear.14 mph88%29.92 "Hg9 mi
4:00 AM52 °FClear.15 mph82%29.94 "Hg9 mi
3:00 AM52 °FClear.14 mph77%29.96 "Hg9 mi
2:00 AM50 °FClear.13 mph82%29.98 "Hg9 mi
1:00 AM50 °FClear.15 mph82%29.99 "Hg9 mi
12:00 AM50 °FClear.12 mph88%30.00 "Hg9 mi
11:00 PM
Jul 31
50 °FClear.14 mph94%29.99 "Hg9 mi
10:00 PM52 °FSunny.12 mph82%30.00 "Hg9 mi
9:00 PM54 °FSunny.13 mph82%30.01 "Hg9 mi
8:00 PM54 °FSunny.15 mph77%30.01 "Hg9 mi
7:00 PM57 °FSunny.18 mph67%30.02 "Hg9 mi
6:00 PM57 °FSunny.18 mph72%30.03 "Hg9 mi
5:00 PM61 °FSunny.18 mph68%30.03 "Hg15 mi
4:00 PM63 °FSunny.22 mph64%30.04 "Hg15 mi
3:00 PM61 °FSunny.16 mph68%30.04 "Hg15 mi
2:00 PM59 °FSunny.17 mph77%30.05 "Hg15 mi
1:00 PM57 °FSunny.16 mph77%30.06 "Hg15 mi
12:00 PM59 °FSunny.14 mph72%30.06 "Hg15 mi
11:00 AM57 °FSunny.13 mph77%30.07 "Hg15 mi
10:00 AM55 °FSunny.13 mph82%30.07 "Hg15 mi
9:00 AM54 °FSunny.10 mph88%30.08 "Hg15 mi
8:00 AM54 °FSunny.10 mph88%30.09 "Hg15 mi
7:00 AM52 °FSunny.12 mph94%30.10 "Hg15 mi
Weather by CustomWeather, © 2014

See weather overviewHow to use our weather pages